N7SWJ Weather Reports


Display with metric or nautical units.
time (UTC)temp
F
wind
direction
speed
MPH
gust
MPH
rain 1hr
in
rain 24hr
in
rain mn
in
humidity
%
barometer
mb
20260507191026 68 97 1.0 1.0 0.00 0.00 0.00 35 1015.8
20260507190523 68 158 2.0 3.0 0.00 0.00 0.00 34 1015.8
20260507190022 66 103 0.0 1.0 0.00 0.00 0.00 36 1015.9
20260507185520 68 98 1.0 1.0 0.00 0.00 0.00 37 1016.0
20260507185016 70 107 0.0 0.0 0.00 0.00 0.00 35 1016.0
20260507184514 68 187 1.0 2.0 0.00 0.00 0.00 35 1015.9
20260507184012 66 65 1.0 2.0 0.00 0.00 0.00 35 1016.0
20260507183507 66 171 1.0 2.0 0.00 0.00 0.00 36 1016.1
20260507183005 65 130 2.0 2.0 0.00 0.00 0.00 36 1016.0
20260507182501 64 144 3.0 4.0 0.00 0.00 0.00 35 1016.1
20260507181957 64 138 1.0 1.0 0.00 0.00 0.00 38 1016.1
20260507181454 64 115 0.0 1.0 0.00 0.00 0.00 40 1016.3
20260507180950 65 103 1.0 1.0 0.00 0.00 0.00 43 1016.5
20260507180447 64 76 0.0 0.0 0.00 0.00 0.00 42 1016.6
20260507175943 63 33 2.0 2.0 0.00 0.00 0.00 43 1016.6
20260507175440 62 98 0.0 1.0 0.00 0.00 0.00 45 1016.5
20260507174937 62 98 0.0 0.0 0.00 0.00 0.00 46 1016.6
20260507174434 62 141 2.0 2.0 0.00 0.00 0.00 44 1016.5
20260507173932 61 53 1.0 1.0 0.00 0.00 0.00 45 1016.5
20260507173429 61 151 1.0 2.0 0.00 0.00 0.00 46 1016.7
20260507172926 61 134 0.0 1.0 0.00 0.00 0.00 48 1016.9
20260507172422 60 103 1.0 1.0 0.00 0.00 0.00 49 1016.9
20260507171918 59 134 1.0 2.0 0.00 0.00 0.00 51 1017.0
20260507171415 59 121 1.0 2.0 0.00 0.00 0.00 51 1016.9
20260507170912 59 82 0.0 0.0 0.00 0.00 0.00 55 1017.3
20260507170409 58 104 0.0 0.0 0.00 0.00 0.00 56 1017.5
20260507165905 58 119 1.0 1.0 0.00 0.00 0.00 55 1017.1
20260507165400 57 99 0.0 0.0 0.00 0.00 0.00 56 1017.3
20260507164857 57 127 1.0 1.0 0.00 0.00 0.00 54 1017.3
20260507164354 57 102 0.0 1.0 0.00 0.00 0.00 54 1017.3
20260507163851 56 107 0.0 0.0 0.00 0.00 0.00 55 1017.1
20260507163348 56 115 1.0 1.0 0.00 0.00 0.00 54 1017.3
20260507162845 56 87 0.0 1.0 0.00 0.00 0.00 55 1017.5
20260507162340 55 111 0.0 0.0 0.00 0.00 0.00 55 1017.4
20260507161838 55 148 2.0 2.0 0.00 0.00 0.00 52 1017.5
20260507161334 55 107 0.0 0.0 0.00 0.00 0.00 53 1017.5
20260507160831 55 98 0.0 1.0 0.00 0.00 0.00 55 1017.4
20260507160326 55 153 2.0 2.0 0.00 0.00 0.00 54 1017.4
20260507155823 55 109 1.0 1.0 0.00 0.00 0.00 54 1017.5
20260507155319 55 60 0.0 0.0 0.00 0.00 0.00 54 1017.5
20260507154816 54 59 0.0 0.0 0.00 0.00 0.00 56 1017.7
20260507154313 53 87 0.0 0.0 0.00 0.00 0.00 57 1017.6
20260507153810 52 94 0.0 0.0 0.00 0.00 0.00 60 1017.4
20260507153306 52 100 0.0 0.0 0.00 0.00 0.00 60 1017.6
20260507152803 51 94 0.0 0.0 0.00 0.00 0.00 60 1017.6
20260507152259 50 80 0.0 0.0 0.00 0.00 0.00 62 1017.7
20260507151755 50 117 1.0 1.0 0.00 0.00 0.00 61 1017.5
20260507151251 50 96 0.0 1.0 0.00 0.00 0.00 61 1017.4
20260507150748 49 123 0.0 1.0 0.00 0.00 0.00 62 1017.6
20260507150245 49 112 0.0 0.0 0.00 0.00 0.00 62 1017.3
20260507145741 48 118 1.0 1.0 0.00 0.00 0.00 63 1017.5
20260507145238 48 146 1.0 2.0 0.00 0.00 0.00 64 1017.5
20260507144735 48 115 2.0 2.0 0.00 0.00 0.00 66 1017.5
20260507144233 48 112 1.0 1.0 0.00 0.00 0.00 63 1017.6
20260507143729 48 134 1.0 1.0 0.00 0.00 0.00 63 1017.6
20260507143226 48 104 0.0 0.0 0.00 0.00 0.00 65 1017.5
20260507142722 48 120 0.0 1.0 0.00 0.00 0.00 63 1017.5
20260507142219 48 108 0.0 0.0 0.00 0.00 0.00 64 1017.6
20260507141715 48 108 0.0 0.0 0.00 0.00 0.00 64 1017.3
20260507141213 48 111 0.0 0.0 0.00 0.00 0.00 63 1017.6
20260507140708 48 102 0.0 0.0 0.00 0.00 0.00 62 1017.5
20260507140206 48 102 0.0 0.0 0.00 0.00 0.00 62 1017.6
20260507135703 48 77 0.0 0.0 0.00 0.00 0.00 63 1017.6
20260507135200 46 117 0.0 1.0 0.00 0.00 0.00 65 1017.4
20260507134657 45 121 0.0 1.0 0.00 0.00 0.00 67 1017.5
20260507134153 44 123 1.0 1.0 0.00 0.00 0.00 70 1017.4
20260507133649 43 104 0.0 1.0 0.00 0.00 0.00 71 1017.4
20260507133146 42 165 2.0 3.0 0.00 0.00 0.00 71 1017.4
20260507132643 42 102 0.0 1.0 0.00 0.00 0.00 72 1017.3
20260507132139 41 95 1.0 1.0 0.00 0.00 0.00 72 1017.1
20260507131636 41 123 0.0 1.0 0.00 0.00 0.00 73 1017.4
20260507131134 41 117 1.0 2.0 0.00 0.00 0.00 73 1017.1
20260507130630 41 131 2.0 3.0 0.00 0.00 0.00 72 1017.3
20260507130129 40 111 1.0 1.0 0.00 0.00 0.00 72 1017.1
20260507125627 40 84 0.0 0.0 0.00 0.00 0.00 73 1016.9
20260507125124 39 171 1.0 1.0 0.00 0.00 0.00 73 1016.9
20260507124620 38 174 1.0 2.0 0.00 0.00 0.00 74 1016.9
20260507124118 38 143 1.0 1.0 0.00 0.00 0.00 74 1016.7
20260507123616 37 121 1.0 1.0 0.00 0.00 0.00 75 1016.7
20260507123113 37 126 1.0 1.0 0.00 0.00 0.00 76 1016.9
20260507122608 37 119 0.0 1.0 0.00 0.00 0.00 77 1016.7
20260507122104 36 124 1.0 1.0 0.00 0.00 0.00 78 1016.7
20260507121600 36 152 1.0 1.0 0.00 0.00 0.00 79 1016.7
20260507121056 35 109 0.0 0.0 0.00 0.00 0.00 80 1016.6
20260507120552 35 105 0.0 0.0 0.00 0.00 0.00 79 1016.6
20260507120049 36 104 0.0 0.0 0.00 0.00 0.00 78 1016.8
20260507115545 36 105 0.0 0.0 0.00 0.00 0.00 76 1016.8
20260507115041 37 122 0.0 1.0 0.00 0.00 0.00 76 1016.7
20260507114537 37 58 0.0 1.0 0.00 0.00 0.00 75 1016.6
20260507114035 37 144 0.0 1.0 0.00 0.00 0.00 75 1016.6
20260507113532 37 199 2.0 2.0 0.00 0.00 0.00 76 1016.8
20260507113029 36 100 1.0 1.0 0.00 0.00 0.00 77 1016.6
20260507112527 36 173 0.0 1.0 0.00 0.00 0.00 77 1016.7
20260507112023 36 113 0.0 0.0 0.00 0.00 0.00 78 1016.6
20260507111520 36 156 1.0 2.0 0.00 0.00 0.00 78 1016.5
20260507111017 35 117 0.0 0.0 0.00 0.00 0.00 78 1016.6
20260507110513 35 114 0.0 0.0 0.00 0.00 0.00 80 1016.6
20260507110010 35 108 0.0 0.0 0.00 0.00 0.00 80 1016.5
20260507105507 35 110 0.0 0.0 0.00 0.00 0.00 79 1016.6
20260507105003 35 109 0.0 1.0 0.00 0.00 0.00 79 1016.3
20260507104500 35 112 0.0 0.0 0.00 0.00 0.00 80 1016.7
20260507103956 35 120 0.0 0.0 0.00 0.00 0.00 81 1016.6
20260507103453 34 109 0.0 0.0 0.00 0.00 0.00 83 1016.5
20260507102949 34 106 0.0 0.0 0.00 0.00 0.00 84 1016.6
20260507102446 34 107 0.0 0.0 0.00 0.00 0.00 83 1016.7
20260507101942 34 107 0.0 0.0 0.00 0.00 0.00 83 1016.8
20260507101437 34 115 0.0 0.0 0.00 0.00 0.00 83 1017.0
20260507100929 34 107 0.0 0.0 0.00 0.00 0.00 83 1016.8
20260507100427 34 112 0.0 0.0 0.00 0.00 0.00 84 1016.6
20260507095925 34 100 0.0 0.0 0.00 0.00 0.00 84 1016.7
20260507095422 34 96 0.0 0.0 0.00 0.00 0.00 84 1016.8
20260507094918 34 159 1.0 1.0 0.00 0.00 0.00 85 1017.0
20260507094414 34 103 0.0 0.0 0.00 0.00 0.00 85 1016.8
20260507093911 34 118 0.0 0.0 0.00 0.00 0.00 85 1016.8
20260507093409 34 112 0.0 0.0 0.00 0.00 0.00 86 1017.0
20260507092908 33 112 0.0 1.0 0.00 0.00 0.00 87 1016.8
20260507092403 33 113 0.0 0.0 0.00 0.00 0.00 88 1016.9
20260507091901 33 123 0.0 1.0 0.00 0.00 0.00 88 1017.0
20260507091357 33 108 0.0 0.0 0.00 0.00 0.00 89 1016.8
20260507090852 33 109 0.0 0.0 0.00 0.00 0.00 89 1017.0
20260507090348 33 105 0.0 0.0 0.00 0.00 0.00 89 1017.0
20260507085846 33 109 0.0 0.0 0.00 0.00 0.00 89 1017.0
20260507085342 33 115 0.0 0.0 0.00 0.00 0.00 90 1017.0
20260507084840 33 105 0.0 0.0 0.00 0.00 0.00 89 1017.0
20260507084336 33 126 1.0 1.0 0.00 0.00 0.00 89 1017.0
20260507083834 33 110 0.0 0.0 0.00 0.00 0.00 89 1017.0
20260507083330 33 108 0.0 0.0 0.00 0.00 0.00 88 1017.0
20260507082826 33 108 0.0 0.0 0.00 0.00 0.00 87 1017.3
20260507082322 33 101 0.0 1.0 0.00 0.00 0.00 87 1017.3
20260507081819 33 119 0.0 1.0 0.00 0.00 0.00 88 1017.3
20260507081315 34 103 0.0 0.0 0.00 0.00 0.00 88 1017.4
20260507080812 34 116 1.0 1.0 0.00 0.00 0.00 88 1017.4
20260507080308 34 120 0.0 0.0 0.00 0.00 0.00 88 1017.5
20260507075803 34 157 1.0 2.0 0.00 0.00 0.00 88 1017.4
20260507075300 33 116 0.0 0.0 0.00 0.00 0.00 88 1017.7
20260507074756 33 118 0.0 0.0 0.00 0.00 0.00 88 1017.7
20260507074255 33 109 0.0 0.0 0.00 0.00 0.00 88 1017.6
20260507073751 34 108 0.0 0.0 0.00 0.00 0.00 88 1017.8
20260507073247 34 116 0.0 0.0 0.00 0.00 0.00 87 1017.5
20260507072745 34 111 0.0 0.0 0.00 0.00 0.00 86 1017.8
20260507072242 34 113 0.0 1.0 0.00 0.00 0.00 86 1017.6
20260507071740 34 130 1.0 1.0 0.00 0.00 0.00 86 1017.6
20260507071236 34 124 0.0 1.0 0.00 0.00 0.00 86 1017.8
20260507070733 35 122 0.0 0.0 0.00 0.00 0.00 85 1017.7
20260507070231 35 112 0.0 0.0 0.00 0.00 0.00 85 1018.0
20260507065727 35 102 0.0 0.0 0.00 0.00 0.00 85 1018.1
20260507065224 35 108 0.0 0.0 0.00 0.00 0.00 84 1018.0
20260507064721 35 129 1.0 2.0 0.00 0.00 0.00 84 1018.1
20260507064221 35 119 0.0 1.0 0.00 0.00 0.00 84 1018.2
20260507063717 35 113 0.0 1.0 0.00 0.00 0.00 84 1018.2
20260507063214 35 104 0.0 0.0 0.00 0.00 0.00 83 1018.4
20260507062711 35 125 1.0 1.0 0.00 0.00 0.00 83 1018.3
20260507062208 35 115 0.0 1.0 0.00 0.00 0.00 84 1018.3
20260507061706 35 198 1.0 2.0 0.00 0.00 0.00 83 1018.4
20260507061204 35 123 0.0 1.0 0.00 0.00 0.00 83 1018.5
20260507060702 35 109 1.0 1.0 0.00 0.00 0.00 83 1018.6
20260507060158 35 123 1.0 1.0 0.00 0.00 0.00 83 1018.3
20260507055654 36 120 1.0 1.0 0.00 0.47 0.47 83 1018.4
20260507055150 36 147 1.0 1.0 0.00 0.47 0.47 82 1018.4
20260507054646 36 118 1.0 1.0 0.00 0.47 0.47 82 1018.4
20260507054143 36 190 1.0 2.0 0.00 0.47 0.47 82 1018.6
20260507053641 36 143 1.0 1.0 0.00 0.47 0.47 81 1018.6
20260507053139 36 108 0.0 1.0 0.00 0.47 0.47 81 1018.6
20260507052637 36 118 1.0 1.0 0.00 0.47 0.47 81 1018.9
20260507052133 36 132 1.0 1.0 0.00 0.47 0.47 81 1018.8
20260507051630 36 125 1.0 1.0 0.00 0.47 0.47 81 1018.9
20260507051126 36 115 0.0 1.0 0.00 0.47 0.47 82 1019.0
20260507050624 36 100 0.0 0.0 0.00 0.47 0.47 82 1019.1
20260507050120 36 102 0.0 1.0 0.00 0.47 0.47 82 1019.0
20260507045617 36 117 0.0 1.0 0.00 0.47 0.47 82 1019.1
20260507045114 36 106 0.0 0.0 0.00 0.47 0.47 82 1019.3
20260507044610 36 108 0.0 0.0 0.00 0.47 0.47 82 1019.5
20260507044108 36 113 0.0 0.0 0.00 0.47 0.47 81 1019.5
20260507043603 36 119 0.0 0.0 0.00 0.47 0.47 82 1019.5
20260507043101 36 122 0.0 1.0 0.00 0.47 0.47 82 1019.7
20260507042556 37 109 0.0 0.0 0.00 0.47 0.47 82 1019.7
20260507042052 37 112 0.0 0.0 0.00 0.47 0.47 82 1019.9
20260507041550 37 112 0.0 0.0 0.00 0.47 0.47 81 1019.8
20260507041046 37 122 0.0 1.0 0.00 0.47 0.47 80 1019.9
20260507040542 37 123 0.0 1.0 0.00 0.47 0.47 79 1019.8
20260507040038 38 129 1.0 1.0 0.00 0.47 0.47 78 1020.0
20260507035535 37 134 1.0 1.0 0.00 0.47 0.47 78 1019.8
20260507035031 37 120 1.0 1.0 0.00 0.47 0.47 79 1019.9
20260507034528 37 119 0.0 0.0 0.00 0.47 0.47 79 1019.9
20260507034026 37 113 0.0 0.0 0.00 0.47 0.47 80 1019.8
20260507033524 37 113 0.0 0.0 0.00 0.47 0.47 80 1019.9
20260507033021 37 113 0.0 0.0 0.00 0.47 0.47 79 1019.9
20260507032518 37 112 0.0 0.0 0.00 0.47 0.47 79 1020.0
20260507032009 37 112 0.0 0.0 0.00 0.47 0.47 79 1020.0
20260507031505 37 112 0.0 0.0 0.00 0.47 0.47 79 1019.9
20260507031002 37 113 0.0 0.0 0.00 0.47 0.47 79 1019.9
20260507030459 38 111 0.0 0.0 0.00 0.47 0.47 78 1020.1
20260507025956 38 116 0.0 0.0 0.00 0.47 0.47 78 1019.8
20260507025453 38 123 0.0 0.0 0.00 0.47 0.47 78 1020.0
20260507024951 38 108 0.0 0.0 0.00 0.47 0.47 77 1020.0
20260507024448 38 107 0.0 0.0 0.00 0.47 0.47 76 1019.9
20260507023944 38 108 0.0 0.0 0.00 0.47 0.47 75 1020.1
20260507023441 39 107 0.0 0.0 0.00 0.47 0.47 75 1019.9
20260507022938 39 107 0.0 0.0 0.00 0.47 0.47 75 1019.9
20260507022435 39 107 0.0 0.0 0.00 0.47 0.47 74 1019.8
20260507021931 39 107 0.0 0.0 0.00 0.47 0.47 74 1020.0
20260507021426 39 107 0.0 0.0 0.00 0.47 0.47 73 1019.9
20260507020924 39 107 0.0 0.0 0.00 0.47 0.47 72 1019.7
20260507020421 40 108 0.0 0.0 0.00 0.47 0.47 72 1019.8
20260507015918 40 102 0.0 0.0 0.00 0.47 0.47 71 1019.7
20260507015416 40 95 0.0 0.0 0.00 0.47 0.47 70 1019.7
20260507014912 40 108 0.0 0.0 0.00 0.47 0.47 70 1020.0
20260507014409 41 101 0.0 0.0 0.00 0.47 0.47 69 1019.9
20260507013905 41 101 0.0 0.0 0.00 0.47 0.47 69 1019.9
20260507013402 42 101 0.0 0.0 0.00 0.47 0.47 68 1019.6
20260507012900 42 103 0.0 0.0 0.00 0.47 0.47 67 1019.7
20260507012355 42 165 2.0 2.0 0.00 0.47 0.47 64 1019.9
20260507011852 42 129 1.0 1.0 0.00 0.47 0.47 63 1019.7
20260507011349 42 170 1.0 1.0 0.00 0.47 0.47 64 1019.7
20260507010849 42 130 0.0 1.0 0.00 0.47 0.47 65 1019.8
20260507010345 42 106 0.0 1.0 0.00 0.47 0.47 64 1019.7
20260507005842 43 104 1.0 1.0 0.00 0.47 0.47 64 1019.6
20260507005339 43 148 2.0 2.0 0.00 0.47 0.47 63 1019.8
20260507004836 43 91 0.0 0.0 0.00 0.47 0.47 64 1019.6
20260507004333 43 169 2.0 2.0 0.00 0.47 0.47 62 1019.8
20260507003830 44 98 1.0 2.0 0.00 0.47 0.47 62 1019.8
20260507003325 44 167 2.0 2.0 0.00 0.47 0.47 62 1019.7
20260507002820 43 83 2.0 3.0 0.00 0.47 0.47 63 1019.9
20260507002317 44 144 2.0 2.0 0.00 0.47 0.47 62 1019.8
20260507001810 44 99 0.0 1.0 0.00 0.47 0.47 63 1019.8
20260507001306 44 125 1.0 1.0 0.00 0.47 0.47 59 1020.0
20260507000802 45 145 2.0 3.0 0.00 0.47 0.47 56 1019.9
20260507000252 46 164 1.0 2.0 0.00 0.47 0.47 57 1020.0
20260506235748 46 148 2.0 2.0 0.00 0.47 0.47 56 1020.4
20260506235244 46 146 1.0 2.0 0.00 0.47 0.47 57 1020.0
20260506234741 46 284 2.0 3.0 0.00 0.47 0.47 56 1020.0
20260506234238 47 108 0.0 0.0 0.00 0.47 0.47 56 1020.0
20260506233736 48 132 1.0 2.0 0.00 0.47 0.47 54 1020.1
20260506233232 47 99 0.0 0.0 0.00 0.47 0.47 56 1020.4
20260506232729 45 128 1.0 1.0 0.00 0.47 0.47 60 1020.3
20260506232224 47 122 1.0 2.0 0.00 0.47 0.47 56 1020.3
20260506231721 48 149 2.0 2.0 0.00 0.47 0.47 53 1020.3
20260506231220 47 146 1.0 2.0 0.00 0.47 0.47 56 1020.1
20260506230716 47 177 1.0 2.0 0.00 0.47 0.47 55 1020.1
20260506230213 47 92 1.0 1.0 0.00 0.47 0.47 56 1020.1
20260506225709 48 74 1.0 2.0 0.00 0.47 0.47 55 1020.1
20260506225206 46 106 0.0 0.0 0.00 0.47 0.47 56 1020.0
20260506224703 47 79 0.0 0.0 0.00 0.47 0.47 56 1020.0
20260506224200 48 123 1.0 1.0 0.00 0.47 0.47 55 1020.3
20260506223656 48 142 2.0 2.0 0.00 0.47 0.47 54 1020.3
20260506223152 47 118 1.0 1.0 0.00 0.47 0.47 56 1020.0
20260506222649 46 93 1.0 2.0 0.00 0.47 0.47 57 1020.4
20260506222145 46 133 2.0 2.0 0.00 0.47 0.47 57 1020.4
20260506221643 47 81 0.0 0.0 0.00 0.47 0.47 56 1020.6
20260506221141 48 188 2.0 3.0 0.00 0.47 0.47 54 1020.6
20260506220637 47 127 2.0 2.0 0.00 0.47 0.47 53 1020.7
20260506220132 48 156 2.0 3.0 0.00 0.47 0.47 53 1020.6
20260506215629 47 117 0.0 1.0 0.00 0.47 0.47 56 1020.9
20260506215124 46 178 1.0 2.0 0.00 0.47 0.47 58 1020.9
20260506214622 47 88 0.0 1.0 0.00 0.47 0.47 56 1020.9
20260506214119 45 98 0.0 0.0 0.00 0.47 0.47 59 1020.9
20260506213617 45 87 2.0 2.0 0.00 0.47 0.47 58 1020.9
20260506213114 45 140 1.0 1.0 0.00 0.47 0.47 58 1021.1
20260506212611 46 100 0.0 1.0 0.00 0.47 0.47 57 1020.9
20260506212106 45 115 1.0 1.0 0.00 0.47 0.47 59 1021.2
20260506211602 45 76 0.0 0.0 0.00 0.47 0.47 60 1021.2
20260506211059 44 96 0.0 0.0 0.00 0.47 0.47 62 1021.3
20260506210556 44 166 0.0 1.0 0.00 0.47 0.47 62 1021.4
20260506210052 43 90 0.0 1.0 0.00 0.47 0.47 65 1021.5
20260506205549 43 146 1.0 2.0 0.00 0.47 0.47 61 1021.6
20260506205044 43 107 0.0 1.0 0.00 0.47 0.47 62 1021.6
20260506204543 44 133 1.0 1.0 0.00 0.47 0.47 61 1021.5
20260506204039 44 76 0.0 0.0 0.00 0.47 0.47 63 1022.0
20260506203538 43 98 0.0 0.0 0.00 0.47 0.47 60 1021.5
20260506203034 44 64 1.0 1.0 0.00 0.47 0.47 60 1022.0
20260506202531 43 114 0.0 1.0 0.00 0.47 0.47 63 1022.0
20260506202027 43 93 0.0 0.0 0.00 0.47 0.47 63 1021.9
20260506201526 42 200 1.0 2.0 0.00 0.47 0.47 60 1022.0
20260506201022 43 112 0.0 0.0 0.00 0.47 0.47 63 1022.3
20260506200518 43 50 0.0 1.0 0.00 0.47 0.47 63 1022.1
20260506200015 42 132 1.0 1.0 0.00 0.47 0.47 61 1022.0
20260506195512 42 78 0.0 0.0 0.00 0.47 0.47 65 1022.0
20260506195008 42 122 1.0 1.0 0.00 0.47 0.47 64 1022.1
20260506194506 41 123 1.0 1.0 0.00 0.47 0.47 67 1022.0
20260506193956 41 101 0.0 0.0 0.00 0.47 0.47 63 1022.2
20260506193454 41 115 1.0 2.0 0.00 0.47 0.47 62 1022.2
20260506192950 42 94 2.0 3.0 0.00 0.47 0.47 65 1022.2
20260506192447 42 84 0.0 1.0 0.00 0.47 0.47 68 1022.3
20260506191943 42 82 0.0 0.0 0.00 0.47 0.47 69 1022.3
20260506191440 42 116 1.0 1.0 0.00 0.47 0.47 63 1022.4